This demonstration page uses our WeatherBlox Daily Observations layout. Learn more.

Left ArrowRight Arrow

39.92423, -83.80882

Hourly Observations for October 25, 2020

Temp ( °F °C ) Dew Point ( °F °C ) Humidity (%) Winds ( mph kmh ) Pressure ( in mb ) Visibility ( mi km ) Precip ( " mm )
12:56 am 00:56 Cloudy 40 4.4 38 3.3 93 93 NE 8 13 30.16 1022 10 16.0934 0 0
1:56 am 01:56 Mostly Cloudy 40 4.4 37 2.8 89 89 ENE 8 13 30.16 1021 10 16.0934 0 0
2:56 am 02:56 Mostly Cloudy 40 4.4 37 2.8 89 89 ENE 10 17 30.15 1021 10 16.0934 0 0
3:56 am 03:56 Cloudy 41 5 38 3.3 89 89 ENE 10 17 30.14 1021 10 16.0934 0 0
4:56 am 04:56 Cloudy 42 5.6 38 3.3 85 85 E 8 13 30.14 1021 10 16.0934 0 0
5:56 am 05:56 Cloudy 42 5.6 38 3.3 85 85 ENE 14 22 30.14 1021 10 16.0934 0 0
6:56 am 06:56 Cloudy 43 6.1 37 2.8 80 80 ENE 10 17 30.16 1021 10 16.0934 0 0
7:56 am 07:56 Cloudy 43 6.1 35 1.7 74 74 E 12 19 30.16 1021 10 16.0934 0 0
8:56 am 08:56 Cloudy with Light Rain 43 6.1 38 3.3 82 82 ENE 13 20 30.16 1021 10 16.0934 0.001 0.001
9:56 am 09:56 Cloudy 44 6.7 37 2.8 76 76 NE 13 20 30.16 1022 10 16.0934 0.001 0.001
10:56 am 10:56 Cloudy 46 7.8 37 2.8 71 71 ENE 10 17 30.16 1021 10 16.0934 0 0
11:56 am 11:56 Cloudy 48 8.9 37 2.8 66 66 ENE 13 20 30.14 1021 10 16.0934 0 0
12:56 pm 12:56 Cloudy 50 10 37 2.8 61 61 E 13 20 30.13 1020 10 16.0934 0 0
1:56 pm 13:56 Cloudy 51 10.6 36 2.2 56 56 E 9 15 30.11 1020 10 16.0934 0 0
2:56 pm 14:56 Cloudy 52 11.1 36 2.2 55 55 ENE 7 11 30.08 1019 10 16.0934 0 0
3:56 pm 15:56 Cloudy 53 11.7 37 2.8 55 55 NE 12 19 30.06 1018 10 16.0934 0 0
4:56 pm 16:56 Cloudy 52 11.1 37 2.8 57 57 E 9 15 30.06 1018 10 16.0934 0 0
5:56 pm 17:56 Cloudy 51 10.6 37 2.8 59 59 ENE 9 15 30.07 1018 10 16.0934 0.01 0.254
6:56 pm 18:56 Cloudy 50 10 37 2.8 61 61 ENE 8 13 30.07 1018 10 16.0934 0 0
7:56 pm 19:56 Cloudy 49 9.4 38 3.3 66 66 E 8 13 30.06 1018 10 16.0934 0 0
8:56 pm 20:56 Cloudy 49 9.4 38 3.3 66 66 ESE 7 11 30.07 1018 10 16.0934 0 0
9:56 pm 21:56 Cloudy 49 9.4 40 4.4 71 71 E 8 13 30.07 1018 10 16.0934 0 0
10:56 pm 22:56 Cloudy 48 8.9 41 5 77 77 E 5 7 30.07 1018 10 16.0934 0 0
11:56 pm 23:56 Cloudy 48 8.9 44 6.7 86 86 E 7 11 30.07 1018 10 16.0934 0 0

Powered by AerisWeather